This demonstration page uses our WeatherBlox Daily Observations layout. Learn more.

Left ArrowRight Arrow

Hourly Observations for February 19, 2017

Temp ( °F °C ) Dew Point ( °F °C ) Humidity (%) Winds ( mph kmh ) Pressure ( in mb ) Visibility ( mi km ) Precip ( " mm )
12:53 am 00:53 Clear 60 15.6 34 1.1 38 38 ESE 8 13 29.61 1003 10 16 0.00 0.00
1:53 am 01:53 Clear 59 15 35 1.7 41 41 SE 10 17 29.60 1002 10 16 0.00 0.00
2:53 am 02:53 Clear 60 15.6 36 2.2 41 41 SE 13 20 29.59 1002 10 16 0.00 0.00
3:53 am 03:53 undefined 59 15 37 2.8 44 44 undefined N/A 29.60 1002 N/A 0.00 0.00
4:53 am 04:53 Clear 56 13.3 36 2.2 47 47 WSW 7 11 29.65 1004 10 16 0.00 0.00
5:53 am 05:53 Clear 53 11.7 32 0 45 45 WSW 8 13 29.69 1005 8 13 0.00 0.00
6:53 am 06:53 Clear 52 11.1 33 0.6 49 49 WNW 10 17 29.72 1007 9 14 0.00 0.00
7:53 am 07:53 Sunny 48 8.9 33 0.6 56 56 W 6 9 29.76 1008 10 16 0.00 0.00
8:53 am 08:53 Sunny 50 10 34 1.1 54 54 NE 3 6 29.78 1009 10 16 0.00 0.00
9:53 am 09:53 Partly Cloudy 60 15.6 35 1.7 39 39 Calm 29.77 1008 10 16 0.00 0.00
10:53 am 10:53 Partly Cloudy 65 18.3 32 0 29 29 WSW 9 15 29.77 1008 10 16 0.00 0.00
11:53 am 11:53 Cloudy 64 17.8 32 0 30 30 W 15 24 29.79 1009 10 16 0.00 0.00
12:53 pm 12:53 Cloudy with Light Rain 62 16.7 39 3.9 43 43 SSW 6 9 29.78 1009 10 16 0.00 0.03
1:53 pm 13:53 Sunny 65 18.3 34 1.1 32 32 SW 6 9 29.75 1008 10 16 0.00 0.03
2:53 pm 14:53 Sunny 66 18.9 31 -0.6 27 27 SW 10 17 29.75 1008 10 16 0.00 0.00
3:53 pm 15:53 Sunny 66 18.9 31 -0.6 27 27 WNW 9 15 29.74 1007 10 16 0.00 0.00
4:53 pm 16:53 Sunny 64 17.8 31 -0.6 29 29 WNW 13 20 29.76 1008 10 16 0.00 0.00
5:53 pm 17:53 Sunny 64 17.8 28 -2.2 26 26 WNW 9 15 29.78 1008 10 16 0.00 0.00
6:53 pm 18:53 Clear 58 14.4 25 -3.9 28 28 W 7 11 29.81 1010 10 16 0.00 0.00
7:53 pm 19:53 Clear 56 13.3 26 -3.3 32 32 WSW 7 11 29.82 1010 10 16 0.00 0.00
8:53 pm 20:53 Clear 57 13.9 26 -3.3 30 30 WNW 9 15 29.82 1010 10 16 0.00 0.00
9:53 pm 21:53 Clear 56 13.3 26 -3.3 32 32 W 12 19 29.85 1011 10 16 0.00 0.00
10:53 pm 22:53 Clear 53 11.7 26 -3.3 35 35 W 10 17 29.84 1011 10 16 0.00 0.00
11:53 pm 23:53 Clear 50 10 27 -2.8 41 41 W 10 17 29.84 1011 10 16 0.00 0.00

Powered by AerisWeather